View from above orbital plane
|
View from above satellite
|
Ground track
|
The orbit data is extracted from the following two-line orbital elements,
1 24279U 96046C 21016.87226532 .00000003 00000-0 48318-4 0 9995
2 24279 98.7063 177.0054 0300021 188.3263 296.6900 13.47172834200307
Epoch (UTC): | 16 January 2021 20:56:03 |
Eccentricity: | 0.0300021 |
inclination: | 98.7063° |
perigee height: | 859 km |
apogee height: | 1306 km |
right ascension of ascending node: | 177.0054° |
argument of perigee: | 188.3263° |
revolutions per day: | 13.47172834 |
mean anomaly at epoch: | 296.6900° |
orbit number at epoch: | 20030 |
The dashed part of the orbit path shows where the satellite is in the earth's shadow,
|
|